Location: *
(33.8649°S, 62.1526°E)
Time: 12:59:33
(UTC+00:00)

ARIANE 5 R/B - Pass Details

Date: 17 January 2021
Orbit: 748 x 795 km, 98.6° (Epoch: 02 March)

Event Time Altitude Azimuth Distance (km) Brightness Sun altitude
Exits shadow 22:06:42 74° 179° (S) 790 2.5 -28.0°
Drops below altitude 10° 22:11:17 10° 192° (SSW) 2,300 5.5 -27.4°
Sets 22:13:36 0° 192° (SSW) 3,236 6.3 -27.2°
